Torna al catalogo

COSMOS 1594

GLONASS

AttivoNavigazioneMEO
NORAD 15260·PAYLOAD·🇷🇺 Russia

Lanciato Sep 4, 1984 da Baikonur Cosmodrome

Loading…

Prossimi Passaggi (prossime 24 ore)

TLE

AggiornatoSource: Space-Track

Epoca: Sep 11, 2026, 11:17 UTC

1 15260U 84095B   26254.47064613  .00000008  00000-0  00000-0 0  9998
2 15260  64.8429  71.6075 0004200 185.0663 182.2367  2.12637033326333

Traccia COSMOS 1594 in tempo reale con AllMySat

Download on the App Store